TimeCDT,TemperatureF,Dew PointF,Humidity,Sea Level PressureIn,VisibilityMPH,Wind Direction,Wind SpeedMPH,Gust SpeedMPH,PrecipitationIn,Events,Conditions,WindDirDegrees,DateUTC
12:53 AM,77.0,71.1,82,29.96,10.0,ENE,6.9,-,N/A,,Clear,70,2013-06-23 05:53:00
1:53 AM,77.0,72.0,84,29.95,10.0,East,5.8,-,N/A,,Clear,80,2013-06-23 06:53:00
2:53 AM,75.9,72.0,87,29.95,10.0,ENE,5.8,-,N/A,,Clear,70,2013-06-23 07:53:00
3:53 AM,75.9,72.0,87,29.96,10.0,ENE,6.9,-,N/A,,Clear,70,2013-06-23 08:53:00
4:53 AM,75.0,71.1,87,29.95,9.0,ENE,6.9,-,N/A,,Clear,60,2013-06-23 09:53:00
5:53 AM,73.9,71.1,91,29.96,8.0,ENE,5.8,-,N/A,,Clear,60,2013-06-23 10:53:00
6:53 AM,75.0,71.1,87,29.98,7.0,NE,4.6,-,N/A,,Clear,50,2013-06-23 11:53:00
7:53 AM,78.1,72.0,81,29.99,8.0,ENE,6.9,-,N/A,,Clear,70,2013-06-23 12:53:00
8:53 AM,81.0,73.0,77,29.99,9.0,ESE,3.5,-,N/A,,Clear,120,2013-06-23 13:53:00
9:53 AM,84.9,73.0,67,29.99,10.0,Variable,5.8,-,N/A,,Clear,0,2013-06-23 14:53:00
10:53 AM,88.0,69.1,53,29.98,10.0,SSW,12.7,18.4,N/A,,Clear,210,2013-06-23 15:53:00
11:53 AM,90.0,71.1,54,29.97,10.0,South,6.9,-,N/A,,Partly Cloudy,170,2013-06-23 16:53:00
12:53 PM,91.0,69.1,48,29.96,10.0,South,8.1,-,N/A,,Clear,180,2013-06-23 17:53:00
1:53 PM,91.9,68.0,45,29.96,10.0,SSE,10.4,16.1,N/A,,Partly Cloudy,150,2013-06-23 18:53:00
2:53 PM,93.0,68.0,44,29.95,10.0,South,9.2,-,N/A,,Partly Cloudy,180,2013-06-23 19:53:00
3:53 PM,93.0,68.0,44,29.93,10.0,SSE,8.1,-,N/A,,Clear,160,2013-06-23 20:53:00
4:53 PM,93.0,66.9,42,29.92,10.0,South,6.9,-,N/A,,Clear,190,2013-06-23 21:53:00
5:53 PM,91.9,66.9,44,29.91,10.0,South,9.2,-,N/A,,Clear,190,2013-06-23 22:53:00
6:53 PM,91.0,68.0,47,29.90,10.0,South,8.1,17.3,N/A,,Clear,170,2013-06-23 23:53:00
7:53 PM,88.0,69.1,53,29.91,10.0,SSE,8.1,-,N/A,,Clear,160,2013-06-24 00:53:00
8:53 PM,84.9,70.0,61,29.93,10.0,Calm,Calm,-,N/A,,Clear,0,2013-06-24 01:53:00
9:53 PM,82.9,69.1,63,29.94,10.0,Calm,Calm,-,N/A,,Clear,0,2013-06-24 02:53:00
10:53 PM,81.0,69.1,67,29.95,10.0,Calm,Calm,-,N/A,,Clear,0,2013-06-24 03:53:00
11:53 PM,78.1,70.0,76,29.97,10.0,ENE,4.6,-,N/A,,Clear,70,2013-06-24 04:53:00